Abbadia Cerreto, Italy

6:18 AM CET on December 13, 2017 (GMT +0100)
Lodi (San Bernardo) | | Change Station

Elev 256 ft 45.30 °N, 9.52 °E | Updated 56 seconds ago

Fog
Fog
33.3 °F
Feels Like 29 °F
N
5.0
Wind Variable Wind from WNW
Gusts 5.0 mph

Today
High -- | Low -- °F
--% Chance of Precip.
Yesterday
High -- | Low -- °F
Precip. -- in
Pressure 30.01 in
Visibility 0.5 miles
Clouds Overcast 200 ft
Windchill 29 °F
Dew Point 32 °F
Humidity 95%
Rainfall 0.00 in
Snow Depth Not available.
7:52 AM 4:39 PM
Waning Crescent, 22% visible
METAR LIML 130450Z 26003KT 200V290 0800 R36/0800V1100N FG OVC002 01/01 Q1016 NOSIG
Pressure 30.01 in
Visibility 0.5 miles
Clouds Overcast 200 ft
Windchill 29 °F
Dew Point 32 °F
Humidity 95%
Rainfall 0.00 in
Snow Depth Not available.
7:52 AM 4:39 PM
Waning Crescent, 22% visible
METAR LIML 130450Z 26003KT 200V290 0800 R36/0800V1100N FG OVC002 01/01 Q1016 NOSIG

Get Severe Weather Alerts

Thanks for signing up!

Be on the lookout for a verification email in your inbox.

You'll start receiving the daily forecast at 6 AM.

×

10-Day Weather Forecast

×

Almanac

Astronomy

Dec. 13, 2017 Rise Set
Actual Time
Civil Twilight
Nautical Twilight
Astronomical Twilight
Moon
Length of Visible Light
Length of Day
Tomorrow will be .
, % of the Moon is Illuminated

Today's Extremes

Country Highs Country Lows

Community

WunderPhotos

Category 6

Welcome to Category 6. This is the collective home for Weather Underground's featured writeups by Dr. Jeff Masters (right), Bob Henson (left), Chris Burt, and other regular contributors.

Nearby

Air Quality

  Air Quality AQ Index Pollutant
Not available.

Snow Depth

Station Depth Elevation

Earthquake Activity

City Distance Mag. Time & Date
Minimum magnitude displayed is 2.5.

Coastal Water Temperatures

Place Temperature

Stations

Nearby Weather Stations

Station Location Temp. Windchill Dew Point Humidity Wind Precip. Elev Updated Type